COSMOS 1132

Satellite information

Favourite Embed

Satellite Type and Status

PAYLOADIN ORBIT

Key statistics

Satellite COSMOS 1132 at a glance.

Uptime

16665

Days in orbit

Revolutions

≈ 12.5

Per day

Orbit

LEO

Low Earth Orbit

Inclination

74.0

Latest

Satellite identification and parameters

Extended collection of information and parameters for COSMOS 1132.

Object identification

Identified? True

Debris? False

Object name: COSMOS 1132

International designator: 1979-084C

Object number (NORAD): 11540

Object ID (CCSDS): 11540

Country: COMMONWEALTH OF INDEPENDENT STATES (CIS)

Current information (Y/N): Y

RCS size: MEDIUM

Orbital parameters

Period: 114.955 minutes

Inclination: 74.0279 deg

SMA: 7831.522 km

Apoapsis: 1481.731 km

Periapsis: 1425.042 km

RAAN: 31.113 deg

Eccentricy: 0.0036193

Argument of periapsis: 162.1059 deg

Mean anomaly: 259.8958 deg

Mean motion: 12.5266094 rev/day

Mean motion (dot): -0.00000011 rev/day2

B* drag term: 0.000029667 1/REarth

Two-line elements (TLE)

Creation date: May 11, 2025, 2:40 a.m.

Reference frame: TEME

Reference center: EARTH

Epoch: May 10, 2025, 5:36 p.m. UTC

TLE line 0: 0 COSMOS 1132

TLE line 1: 1 11540U 79084C 25130.73338177 -.00000011 00000-0 29667-4 0 9996

TLE line 2: 2 11540 74.0279 31.1130 0036193 162.1059 259.8958 12.52660940 86271

Live tracking on map

Real-time ground track for satellite COSMOS 1132.

In-orbit conjunctions

A list of the most updated potential collisions computed for object COSMOS 1132.

Target Orbit TCA Probability of collision Miss distance Type
DELTA 1 DEB SSO 2025-01-18 15:03:16 0.0001566329 198.0 (m) DEBRIS
COSMOS 82 LEO 2024-06-20 16:08:25 0.0008936991 221.0 (m) PAYLOAD

Associated space launch

Biological research satellite carrying live organisms

COSMOS 1132 was lifted into orbit during the mission ‘Soyuz U | Bion 5’, on board a Soyuz U space rocket.

The launch took place on Sept. 25, 1979, 3:30 p.m. from 41/1.

For more information about the launch, click the button.

Launch to space Soyuz U | Bion 5
Soyuz U | Bion 5

Agency: N/A

Status: Launch Successful

Launch date: Sept. 25, 1979, 3:30 p.m. UTC

Rocket: Soyuz U

Launch pad: 41/1

Location: Plesetsk Cosmodrome, Russian Federation

...

Latest news about this satellite

There are no fresh news available about this satellite. Check back as we update our databases every day.


Newsletter sign-up

Weekly statistics, charts and insights to help you stay on top of the space industry.